Regional Weather Roundup
Issued by NWS Charleston, SC

Current Version | Previous Version | Graphics & Text | Print | Product List | Glossary Off
Versions: 1 2 3 4 5 6 7 8 9 10 11 12 13 14 15 16 17 18 19 20 21 22 23 24 25 26 27 28 29 30 31 32 33 34 35 36 37 38 39 40 41 42 43 44 45 46 47 48 49 50
000 ASUS42 KCHS 311612 RWRCHS REGIONAL WEATHER ROUNDUP NATIONAL WEATHER SERVICE CHARLESTON SC 1200 PM EDT FRI JUL 31 2015 NOTE: "FAIR" INDICATES FEW OR NO CLOUDS BELOW 12,000 FEET WITH NO SIGNIFICANT WEATHER AND/OR OBSTRUCTIONS TO VISIBILITY. NOT ALL STATIONS ARE QUALITY CONTROLLED BY THE NATIONAL WEATHER SERVICE. USE DATA WITH CAUTION...ESPECIALLY DEWPOINT OBSERVATIONS. SCZ027-030-031-034>040-042>050-311700- ...SOUTHEAST SOUTH CAROLINA... CITY SKY/WX TMP DP RH WIND PRES REMARKS N CHARLESTON CLOUDY 83 74 74 S15 29.96R WATERFRONT PRK N/A 82 76 82 S13 29.93S MOUNT PLEASANT N/A 82 75 78 S10 29.96S JOHNS ISLAND FAIR 82 73 74 S12G18 29.96F PINOPOLIS NOT AVBL MONCKS CORNER NOT AVBL SUMMERVILLE FAIR 86 73 66 CALM 29.97S HX 93 BEAUFORT MCAS PTSUNNY 87 79 76 S3 29.96R HX 101 BEAUFORT ARPT FAIR 82 79 89 CALM 29.95S HAZE HX 93 HILTON HEAD IS CLOUDY 81 75 83 SW3 29.97S WALTERBORO CLOUDY 88 73 62 E6 29.98R HX 96 ALLENDALE PTSUNNY 88 75 66 VRB6G13 29.96S HX 97 ...SOUTHERN MIDLANDS AND PEE DEE... CITY SKY/WX TMP DP RH WIND PRES REMARKS GEORGETOWN NOT AVBL KINGSTREE NOT AVBL ORANGEBURG PTSUNNY 86 64 47 E7 29.97R BARNWELL FAIR 90 70 51 E8 29.98S HX 95 AIKEN FAIR 84 61 45 E9G16 30.03S MANNING HVY RAIN 82 66 57 N5 29.97R COLUMBIA MOSUNNY 89 62 40 NE13 29.97S SUMTER MOSUNNY 86 66 50 E12 29.95S FLORENCE MOSUNNY 90 66 45 NE9 29.96R HX 92 MYRTLE BEACH PTSUNNY 84 73 70 N7 29.97 HX 91 N MYRTLE BEACH CLOUDY 84 75 74 NW5 29.95R HX 92 $$ GAZ063-065-086>088-099>101-113>116-118-119-134>141-150-311700- ...SOUTHEAST GEORGIA... CITY SKY/WX TMP DP RH WIND PRES REMARKS SAVANNAH ARPT CLOUDY 83 77 82 S7 29.96S HX 92 HUNTER AAF CLOUDY 83 79 88 S3 29.94S HX 95 FORT STEWART PTSUNNY 87 76 69 S2 29.95R HX 96 STATESBORO PTSUNNY 87 80 79 CALM 29.96S HX 102 SYLVANIA MOSUNNY 89 80 73 E3 29.97S HX 107 CLAXTON PTSUNNY 84 77 79 S3 29.97R HX 94 ...CSRA...CENTRAL AND FAR SOUTHEAST GEORGIA... CITY SKY/WX TMP DP RH WIND PRES REMARKS THOMSON SUNNY 91 72 53 NE8 30.03S HX 97 AUGUSTA-BUSH SUNNY 89 67 47 E8 29.97R HX 92 AUGUSTA-DANIEL MOSUNNY 89 65 44 E9 29.99R HX 91 SWAINSBORO PTSUNNY 91 79 66 S3 29.97R HX 107 VIDALIA MOSUNNY 88 75 66 NE3 29.97S HX 97 EASTMAN FAIR 91 76 62 S3 29.98S HX 102 HAZLEHURST FAIR 88 77 69 CALM 29.96S HX 100 ALMA MOSUNNY 88 76 67 VRB7 29.96S HX 99 WAYCROSS MOSUNNY 90 80 70 SW7 29.96S HX 107 JESUP FAIR 88 77 70 W3 29.97S HX 100 BAXLEY FAIR 86 77 74 S5 29.96S HX 97 BRUNSWICK MOSUNNY 88 75 66 SW5 29.98R HX 97 SAINT SIMONS MOSUNNY 87 75 67 SW9 29.97R HX 96 $$ SCZ027-028-034-036>038-045-046-048>050-GAZ119-141-311700- ...LAKE AND SUPPLEMENTAL COASTAL OBSERVATIONS... STATION/POSITION TIME TEMP WIND PRES WAVE SWELL AIR SEA DIR/SP/G HT/PER HT/PER/DIR (UTC) (F) (DEG/KT/KT) (MB) (FT/S) (FT/S/D) UPR LAKE MARION NOT AVBL WINYAH BAY 1445 81 220/ 3 1013.0 LAKE MURRAY 1500 84 30/ 3/ 8 1014.6R ACE BASIN NERRS NOT AVBL FORT PULASKI 1500 81 86 180/ 1/ 2 1015.1R SAPELO ISLAND 1500 85 230/ 5 1014.0S $$ ANZ835-935-AMZ111-154-330-350-352-354-370-450-454-472-311700- ...C-MAN AND BUOY OBSERVATIONS... STATION/POSITION TIME TEMP WIND PRES WAVE SWELL AIR SEA DIR/SP/G HT/PER HT/PER/DIR (UTC) (F) (DEG/KT/KT) (MB) (FT/S) (FT/S/D) BUOY 41004 1550 80 84 240/ 14/ 16 1014.0R 2/ 8 2/ 8 BUOY 41008 1550 81 83 210/ 10/ 10 1015.1R 2/ 4 2/120/ 7 FOLLY BEACH CMAN 1600 82 220/ 12/ 16 1014.4F CAPERS NEARSHORE 1508 82 230/ 14/ 17 1014.6R FRIPP NEARSHORE 1500 79 200/ 6/ 8 1014.3R STATION/POSITION TIME TEMP WIND PRES WAVE SWELL AIR SEA DIR/SP/G HT/PER HT/PER/DIR (UTC) (F) (DEG/KT/KT) (MB) (FT/S) (FT/S/D) 5E ST. MARYS GA 1521 84 N/A 2/11 FRYING PAN BUOY 1550 84 85 210/ 4/ 6 1014.5R 3/ 8 3/130/ 8 BUOY 41025 1550 82 86 10/ 10/ 14 1011.9R 4/ 9 3/160/ 9 CAPE LOOKOUT NC 1500 85 330/ 3/ 4 1012.1R BUOY 41002 1550 81 81 250/ 19/ 21 1015.6F 8/ 8 BUOY 41010 1520 82 84 190/ 16/ 17 1017.0F ST AUGUSTINE FL 1600 87 82 220/ 5/ 7 1015.9F $$

USA.gov is the U.S. government's official web portal to all federal, state and local government web resources and services.